When you browse on this site, cookies collect data to enhance your experience and personalize the content and advertising you see.
Visit our Privacy Policy to learn more. By continuing to use the site, you agree to this use of cookies and data.
EN

Hourly Weather Banmankhi

Today, 7 July, Tuesday

Time Temperature Precipitation Wind Pressure Humidity
00:00 +30°C° 0 mm 4 mps 747 mmHg 78%
01:00 +30°C° 0.6 mm 5 mps 747 mmHg 80%
02:00 +30°C° 0.6 mm 5 mps 746 mmHg 81%
03:00 +30°C° 0.6 mm 5 mps 746 mmHg 83%
04:00 +30°C° 0.5 mm 5 mps 746 mmHg 83%
05:00 +30°C° 0.5 mm 5 mps 746 mmHg 84%
06:00 +30°C° 0 mm 6 mps 747 mmHg 84%
07:00 +32°C° 0.3 mm 6 mps 747 mmHg 79%
08:00 +33°C° 0.3 mm 7 mps 747 mmHg 75%
09:00 +34°C° 0.3 mm 7 mps 747 mmHg 71%
10:00 +35°C° 0.2 mm 7 mps 747 mmHg 68%
11:00 +36°C° 0.2 mm 7 mps 747 mmHg 65%
12:00 +36°C° 0 mm 7 mps 748 mmHg 61%
13:00 +38°C° 1.3 mm 7 mps 748 mmHg 61%
14:00 +38°C° 1.3 mm 7 mps 747 mmHg 62%
15:00 +38°C° 1.3 mm 6 mps 746 mmHg 62%
16:00 +36°C° 0.1 mm 6 mps 746 mmHg 64%
17:00 +36°C° 0.1 mm 5 mps 746 mmHg 66%
18:00 +35°C° 0 mm 5 mps 747 mmHg 64%
19:00 +34°C° 0.2 mm 5 mps 748 mmHg 68%
20:00 +33°C° 0.2 mm 4 mps 748 mmHg 72%
21:00 +33°C° 0.2 mm 4 mps 749 mmHg 75%
22:00 +32°C° 0.2 mm 4 mps 749 mmHg 77%
23:00 +32°C° 0.2 mm 4 mps 749 mmHg 79%

Tomorrow, 8 July, Wednesday

Time Temperature Precipitation Wind Pressure Humidity
00:00 +32°C° 0.2 mm 4 mps 749 mmHg 80%
01:00 +30°C° 2.3 mm 4 mps 748 mmHg 81%
02:00 +30°C° 2.3 mm 3 mps 748 mmHg 83%
03:00 +30°C° 2.3 mm 3 mps 747 mmHg 84%
04:00 +30°C° 1.8 mm 3 mps 747 mmHg 84%
05:00 +30°C° 1.8 mm 2 mps 748 mmHg 84%
06:00 +30°C° 1.8 mm 2 mps 748 mmHg 84%
07:00 +31°C° 0.2 mm 3 mps 748 mmHg 78%
08:00 +34°C° 0.2 mm 3 mps 748 mmHg 73%
09:00 +35°C° 0.2 mm 3 mps 748 mmHg 67%
10:00 +36°C° 0 mm 3 mps 748 mmHg 63%
11:00 +37°C° 0 mm 3 mps 748 mmHg 59%
12:00 +38°C° 0 mm 3 mps 748 mmHg 55%
13:00 +38°C° 0.5 mm 3 mps 747 mmHg 56%
14:00 +38°C° 0.5 mm 2 mps 746 mmHg 56%
15:00 +38°C° 0.5 mm 2 mps 746 mmHg 56%
16:00 +37°C° 2.4 mm 2 mps 746 mmHg 60%
17:00 +36°C° 2.4 mm 1 mps 745 mmHg 65%
18:00 +35°C° 2.4 mm 1 mps 745 mmHg 69%
19:00 +34°C° 0.8 mm 1 mps 745 mmHg 70%
20:00 +34°C° 0.8 mm 1 mps 746 mmHg 72%
21:00 +33°C° 0.8 mm 1 mps 746 mmHg 73%
22:00 +33°C° 0.6 mm 1 mps 746 mmHg 74%
23:00 +32°C° 0.6 mm 1 mps 746 mmHg 75%

Day after tomorrow, 9 July, Thursday

Time Temperature Precipitation Wind Pressure Humidity
00:00 +32°C° 0.6 mm 1 mps 746 mmHg 76%
01:00 +32°C° 1.4 mm 1 mps 746 mmHg 77%
02:00 +32°C° 1.4 mm 1 mps 745 mmHg 79%
03:00 +31°C° 1.4 mm 1 mps 745 mmHg 80%
04:00 +31°C° 1.3 mm 1 mps 745 mmHg 81%
05:00 +31°C° 1.3 mm 1 mps 745 mmHg 81%
06:00 +31°C° 1.3 mm 1 mps 745 mmHg 82%
07:00 +31°C° 1.3 mm 2 mps 745 mmHg 81%
08:00 +32°C° 1.3 mm 2 mps 745 mmHg 80%
09:00 +32°C° 1.3 mm 2 mps 746 mmHg 79%
10:00 +34°C° 1.3 mm 2 mps 745 mmHg 76%
11:00 +34°C° 1.3 mm 2 mps 745 mmHg 73%
12:00 +34°C° 1.3 mm 1 mps 745 mmHg 70%
13:00 +35°C° 1.5 mm 2 mps 745 mmHg 69%
14:00 +35°C° 1.5 mm 2 mps 744 mmHg 68%
15:00 +35°C° 1.5 mm 2 mps 744 mmHg 68%
16:00 +35°C° 0.4 mm 2 mps 744 mmHg 72%
17:00 +34°C° 0.4 mm 2 mps 743 mmHg 76%
18:00 +33°C° 0.4 mm 3 mps 743 mmHg 81%
19:00 +31°C° 0.4 mm 3 mps 744 mmHg 82%
20:00 +31°C° 0.4 mm 3 mps 744 mmHg 84%
21:00 +30°C° 0.4 mm 4 mps 744 mmHg 85%
22:00 +30°C° 0.7 mm 4 mps 744 mmHg 86%
23:00 +30°C° 0.7 mm 4 mps 744 mmHg 88%

10 July, Friday

Time Temperature Precipitation Wind Pressure Humidity
00:00 +30°C° 0.7 mm 4 mps 744 mmHg 89%
01:00 +29°C° 3 mm 4 mps 743 mmHg 90%
02:00 +29°C° 3 mm 3 mps 743 mmHg 92%
03:00 +28°C° 3 mm 3 mps 742 mmHg 93%
04:00 +28°C° 0.5 mm 3 mps 743 mmHg 93%
05:00 +28°C° 0.5 mm 2 mps 743 mmHg 93%
06:00 +28°C° 0.5 mm 2 mps 743 mmHg 93%
07:00 +28°C° 1.9 mm 2 mps 743 mmHg 93%
08:00 +28°C° 1.9 mm 1 mps 744 mmHg 93%
09:00 +28°C° 1.9 mm 1 mps 744 mmHg 93%
10:00 +29°C° 0.9 mm 1 mps 745 mmHg 90%
11:00 +30°C° 0.9 mm 1 mps 745 mmHg 87%
12:00 +31°C° 0.9 mm 2 mps 745 mmHg 84%
13:00 +31°C° 1.4 mm 2 mps 745 mmHg 82%
14:00 +31°C° 1.4 mm 2 mps 744 mmHg 81%
15:00 +33°C° 1.4 mm 3 mps 744 mmHg 80%
16:00 +31°C° 1.4 mm 3 mps 744 mmHg 83%
17:00 +30°C° 1.4 mm 3 mps 744 mmHg 86%
18:00 +30°C° 1.4 mm 3 mps 743 mmHg 88%
19:00 +29°C° 0.5 mm 3 mps 744 mmHg 88%
20:00 +29°C° 0.5 mm 4 mps 744 mmHg 89%
21:00 +29°C° 0.5 mm 4 mps 744 mmHg 89%
22:00 +29°C° 1 mm 4 mps 744 mmHg 90%
23:00 +28°C° 1 mm 5 mps 744 mmHg 91%

11 July, Saturday

Time Temperature Precipitation Wind Pressure Humidity
00:00 +28°C° 1 mm 5 mps 744 mmHg 92%
01:00 +28°C° 2.4 mm 4 mps 744 mmHg 93%
02:00 +28°C° 2.4 mm 4 mps 743 mmHg 94%
03:00 +27°C° 2.4 mm 4 mps 743 mmHg 95%
04:00 +28°C° 1.2 mm 3 mps 743 mmHg 95%
05:00 +28°C° 1.2 mm 2 mps 743 mmHg 96%
06:00 +28°C° 1.2 mm 2 mps 743 mmHg 96%
07:00 +28°C° 0.4 mm 2 mps 743 mmHg 94%
08:00 +29°C° 0.4 mm 2 mps 743 mmHg 92%
09:00 +29°C° 0.4 mm 2 mps 744 mmHg 90%
10:00 +29°C° 1.7 mm 2 mps 744 mmHg 90%
11:00 +29°C° 1.7 mm 3 mps 744 mmHg 90%
12:00 +29°C° 1.7 mm 3 mps 745 mmHg 90%
13:00 +29°C° 2.8 mm 3 mps 744 mmHg 92%
14:00 +28°C° 2.8 mm 3 mps 744 mmHg 94%
15:00 +28°C° 2.8 mm 3 mps 744 mmHg 96%
16:00 +28°C° 3.7 mm 3 mps 744 mmHg 96%
17:00 +28°C° 3.7 mm 3 mps 744 mmHg 96%
18:00 +27°C° 3.7 mm 3 mps 744 mmHg 96%
19:00 +27°C° 0.7 mm 2 mps 745 mmHg 96%
20:00 +27°C° 0.7 mm 2 mps 745 mmHg 96%
21:00 +27°C° 0.7 mm 1 mps 746 mmHg 95%
22:00 +27°C° 0.3 mm 1 mps 746 mmHg 95%
23:00 +27°C° 0.3 mm 1 mps 746 mmHg 95%

12 July, Sunday

Time Temperature Precipitation Wind Pressure Humidity
00:00 +27°C° 0.3 mm 1 mps 746 mmHg 94%
01:00 +27°C° 0.4 mm 1 mps 746 mmHg 95%
02:00 +27°C° 0.4 mm 1 mps 745 mmHg 95%
03:00 +27°C° 0.4 mm 2 mps 745 mmHg 95%
04:00 +27°C° 2.9 mm 2 mps 745 mmHg 95%
05:00 +27°C° 2.9 mm 2 mps 745 mmHg 96%
06:00 +27°C° 2.9 mm 2 mps 746 mmHg 96%
07:00 +27°C° 2.7 mm 2 mps 746 mmHg 96%
08:00 +27°C° 2.7 mm 2 mps 746 mmHg 96%
09:00 +27°C° 2.7 mm 2 mps 747 mmHg 96%
10:00 +27°C° 0.3 mm 2 mps 747 mmHg 94%
11:00 +28°C° 0.3 mm 2 mps 747 mmHg 92%
12:00 +28°C° 0.3 mm 2 mps 747 mmHg 91%
13:00 +29°C° 0 mm 2 mps 747 mmHg 87%
14:00 +30°C° 0 mm 2 mps 747 mmHg 83%
15:00 +31°C° 0 mm 2 mps 746 mmHg 79%
16:00 +31°C° 0 mm 2 mps 746 mmHg 79%
17:00 +31°C° 0 mm 2 mps 746 mmHg 79%
18:00 +31°C° 0 mm 2 mps 746 mmHg 80%
19:00 +30°C° 0.2 mm 2 mps 746 mmHg 83%
20:00 +29°C° 0.2 mm 3 mps 746 mmHg 86%
21:00 +28°C° 0.2 mm 3 mps 747 mmHg 89%
22:00 +28°C° 0.3 mm 3 mps 747 mmHg 90%
23:00 +28°C° 0.3 mm 3 mps 747 mmHg 91%
Show more